Location: Newark
(40.9833°N, 0.0333°W)
Time: 03:43:37
(UTC+00:00)

Transit 2A Rocket - Pass Details

Date: 01 November 2020
Orbit: 588 x 914 km, 66.7° (Epoch: 26 November)

Event Time Altitude Azimuth Distance (km) Brightness Sun altitude
Rises 16:38:39 0° 336° (NNW) 3,280 8.3 2.2°
Reaches altitude 10° 16:41:24 10° 346° (NNW) 2,290 7.4 1.7°
Maximum altitude 16:46:05 33° 50° (NE) 1,183 5.6 0.9°
Drops below altitude 10° 16:50:22 10° 115° (ESE) 2,089 6.9 0.1°
Sets 16:52:46 0° 125° (SE) 2,950 7.7 -0.3°
